owner,sensor,date,latitude,longitude,relative_humidity,qcFlag 
COMPS,ioos:station:USF.COMPS:ARP:1,2014-02-01T00:00:00Z,28.4330,-82.6670,97.07,1111122 
COMPS,ioos:station:USF.COMPS:ARP:1,2014-02-01T00:06:00Z,28.4330,-82.6670,97.15,1111122 
COMPS,ioos:station:USF.COMPS:ARP:1,2014-02-01T00:12:00Z,28.4330,-82.6670,97.22,1111122 
COMPS,ioos:station:USF.COMPS:ARP:1,2014-02-01T00:18:00Z,28.4330,-82.6670,97.26,1111122 
COMPS,ioos:station:USF.COMPS:ARP:1,2014-02-01T00:24:00Z,28.4330,-82.6670,97.3,1111122 
COMPS,ioos:station:USF.COMPS:ARP:1,2014-02-01T00:30:00Z,28.4330,-82.6670,97.37,1111122 
COMPS,ioos:station:USF.COMPS:ARP:1,2014-02-01T00:36:00Z,28.4330,-82.6670,97.38,1111122 
COMPS,ioos:station:USF.COMPS:ARP:1,2014-02-01T00:42:00Z,28.4330,-82.6670,97.41,1111122 
COMPS,ioos:station:USF.COMPS:ARP:1,2014-02-01T00:48:00Z,28.4330,-82.6670,97.43,1111122 
COMPS,ioos:station:USF.COMPS:ARP:1,2014-02-01T00:54:00Z,28.4330,-82.6670,97.45,1111122 
COMPS,ioos:station:USF.COMPS:ARP:1,2014-02-01T01:00:00Z,28.4330,-82.6670,97.49,1111122 
COMPS,ioos:station:USF.COMPS:ARP:1,2014-02-01T01:06:00Z,28.4330,-82.6670,97.54,1111122 
COMPS,ioos:station:USF.COMPS:ARP:1,2014-02-01T01:12:00Z,28.4330,-82.6670,97.52,1111122 
COMPS,ioos:station:USF.COMPS:ARP:1,2014-02-01T01:18:00Z,28.4330,-82.6670,97.54,1111122 
COMPS,ioos:station:USF.COMPS:ARP:1,2014-02-01T01:24:00Z,28.4330,-82.6670,97.54,1111122 
COMPS,ioos:station:USF.COMPS:ARP:1,2014-02-01T01:30:00Z,28.4330,-82.6670,97.53,1111122 
COMPS,ioos:station:USF.COMPS:ARP:1,2014-02-01T01:36:00Z,28.4330,-82.6670,97.53,1111122 
COMPS,ioos:station:USF.COMPS:ARP:1,2014-02-01T01:42:00Z,28.4330,-82.6670,97.54,1111122 
COMPS,ioos:station:USF.COMPS:ARP:1,2014-02-01T01:48:00Z,28.4330,-82.6670,97.55,1111122 
COMPS,ioos:station:USF.COMPS:ARP:1,2014-02-01T01:54:00Z,28.4330,-82.6670,97.52,1111122 
COMPS,ioos:station:USF.COMPS:ARP:1,2014-02-01T02:00:00Z,28.4330,-82.6670,97.56,1111122 
COMPS,ioos:station:USF.COMPS:ARP:1,2014-02-01T02:06:00Z,28.4330,-82.6670,97.57,1111122 
COMPS,ioos:station:USF.COMPS:ARP:1,2014-02-01T02:12:00Z,28.4330,-82.6670,97.55,1111122 
COMPS,ioos:station:USF.COMPS:ARP:1,2014-02-01T02:18:00Z,28.4330,-82.6670,97.57,1111122 
COMPS,ioos:station:USF.COMPS:ARP:1,2014-02-01T02:24:00Z,28.4330,-82.6670,97.62,1111122 
COMPS,ioos:station:USF.COMPS:ARP:1,2014-02-01T02:30:00Z,28.4330,-82.6670,97.65,1111122 
COMPS,ioos:station:USF.COMPS:ARP:1,2014-02-01T02:36:00Z,28.4330,-82.6670,97.65,1111122 
COMPS,ioos:station:USF.COMPS:ARP:1,2014-02-01T02:42:00Z,28.4330,-82.6670,97.69,1111122 
COMPS,ioos:station:USF.COMPS:ARP:1,2014-02-01T02:48:00Z,28.4330,-82.6670,97.72,1111122 
COMPS,ioos:station:USF.COMPS:ARP:1,2014-02-01T02:54:00Z,28.4330,-82.6670,97.76,1111122 
COMPS,ioos:station:USF.COMPS:ARP:1,2014-02-01T03:00:00Z,28.4330,-82.6670,97.84,1111122 
COMPS,ioos:station:USF.COMPS:ARP:1,2014-02-01T03:06:00Z,28.4330,-82.6670,97.87,1111122 
COMPS,ioos:station:USF.COMPS:ARP:1,2014-02-01T03:12:00Z,28.4330,-82.6670,97.92,1111122 
COMPS,ioos:station:USF.COMPS:ARP:1,2014-02-01T03:18:00Z,28.4330,-82.6670,97.95,1111122 
COMPS,ioos:station:USF.COMPS:ARP:1,2014-02-01T03:24:00Z,28.4330,-82.6670,97.96,1111122 
COMPS,ioos:station:USF.COMPS:ARP:1,2014-02-01T03:30:00Z,28.4330,-82.6670,98.0,1111122 
COMPS,ioos:station:USF.COMPS:ARP:1,2014-02-01T03:36:00Z,28.4330,-82.6670,98.01,1111122 
COMPS,ioos:station:USF.COMPS:ARP:1,2014-02-01T03:42:00Z,28.4330,-82.6670,98.05,1111122 
COMPS,ioos:station:USF.COMPS:ARP:1,2014-02-01T03:48:00Z,28.4330,-82.6670,98.06,1111122 
COMPS,ioos:station:USF.COMPS:ARP:1,2014-02-01T03:54:00Z,28.4330,-82.6670,98.06,1111122 
COMPS,ioos:station:USF.COMPS:ARP:1,2014-02-01T04:00:00Z,28.4330,-82.6670,98.06,1111122 
COMPS,ioos:station:USF.COMPS:ARP:1,2014-02-01T04:06:00Z,28.4330,-82.6670,98.06,1111122 
COMPS,ioos:station:USF.COMPS:ARP:1,2014-02-01T04:12:00Z,28.4330,-82.6670,98.09,1111122 
COMPS,ioos:station:USF.COMPS:ARP:1,2014-02-01T04:18:00Z,28.4330,-82.6670,98.06,1111122 
COMPS,ioos:station:USF.COMPS:ARP:1,2014-02-01T04:24:00Z,28.4330,-82.6670,98.08,1111122 
COMPS,ioos:station:USF.COMPS:ARP:1,2014-02-01T04:30:00Z,28.4330,-82.6670,98.09,1111122 
COMPS,ioos:station:USF.COMPS:ARP:1,2014-02-01T04:36:00Z,28.4330,-82.6670,98.11,1111122 
COMPS,ioos:station:USF.COMPS:ARP:1,2014-02-01T04:42:00Z,28.4330,-82.6670,98.12,1111122 
COMPS,ioos:station:USF.COMPS:ARP:1,2014-02-01T04:48:00Z,28.4330,-82.6670,98.12,1111122 
COMPS,ioos:station:USF.COMPS:ARP:1,2014-02-01T04:54:00Z,28.4330,-82.6670,98.13,1111122 
COMPS,ioos:station:USF.COMPS:ARP:1,2014-02-01T05:00:00Z,28.4330,-82.6670,98.16,1111122 
COMPS,ioos:station:USF.COMPS:ARP:1,2014-02-01T05:06:00Z,28.4330,-82.6670,98.18,1111122 
COMPS,ioos:station:USF.COMPS:ARP:1,2014-02-01T05:12:00Z,28.4330,-82.6670,98.21,1111122 
COMPS,ioos:station:USF.COMPS:ARP:1,2014-02-01T05:18:00Z,28.4330,-82.6670,98.21,1111122 
COMPS,ioos:station:USF.COMPS:ARP:1,2014-02-01T05:24:00Z,28.4330,-82.6670,98.24,1111122 
COMPS,ioos:station:USF.COMPS:ARP:1,2014-02-01T05:30:00Z,28.4330,-82.6670,98.27,1111122 
COMPS,ioos:station:USF.COMPS:ARP:1,2014-02-01T05:36:00Z,28.4330,-82.6670,98.27,1111122 
COMPS,ioos:station:USF.COMPS:ARP:1,2014-02-01T05:42:00Z,28.4330,-82.6670,98.29,1111122 
COMPS,ioos:station:USF.COMPS:ARP:1,2014-02-01T05:48:00Z,28.4330,-82.6670,98.34,1111122 
COMPS,ioos:station:USF.COMPS:ARP:1,2014-02-01T05:54:00Z,28.4330,-82.6670,98.35,1111122 
COMPS,ioos:station:USF.COMPS:ARP:1,2014-02-01T06:00:00Z,28.4330,-82.6670,98.38,1111122 
COMPS,ioos:station:USF.COMPS:ARP:1,2014-02-01T06:06:00Z,28.4330,-82.6670,98.42,1111122 
COMPS,ioos:station:USF.COMPS:ARP:1,2014-02-01T06:12:00Z,28.4330,-82.6670,98.46,1111122 
COMPS,ioos:station:USF.COMPS:ARP:1,2014-02-01T06:18:00Z,28.4330,-82.6670,98.46,1111122 
COMPS,ioos:station:USF.COMPS:ARP:1,2014-02-01T06:24:00Z,28.4330,-82.6670,98.51,1111122 
COMPS,ioos:station:USF.COMPS:ARP:1,2014-02-01T06:30:00Z,28.4330,-82.6670,98.51,1111122 
COMPS,ioos:station:USF.COMPS:ARP:1,2014-02-01T06:36:00Z,28.4330,-82.6670,98.51,1111122 
COMPS,ioos:station:USF.COMPS:ARP:1,2014-02-01T06:42:00Z,28.4330,-82.6670,98.52,1111122 
COMPS,ioos:station:USF.COMPS:ARP:1,2014-02-01T06:48:00Z,28.4330,-82.6670,98.55,1111122 
COMPS,ioos:station:USF.COMPS:ARP:1,2014-02-01T06:54:00Z,28.4330,-82.6670,98.55,1111122 
COMPS,ioos:station:USF.COMPS:ARP:1,2014-02-01T07:00:00Z,28.4330,-82.6670,98.59,1111122 
COMPS,ioos:station:USF.COMPS:ARP:1,2014-02-01T07:06:00Z,28.4330,-82.6670,98.6,1111122 
COMPS,ioos:station:USF.COMPS:ARP:1,2014-02-01T07:12:00Z,28.4330,-82.6670,98.64,1111122 
COMPS,ioos:station:USF.COMPS:ARP:1,2014-02-01T07:18:00Z,28.4330,-82.6670,98.64,1111122 
COMPS,ioos:station:USF.COMPS:ARP:1,2014-02-01T07:24:00Z,28.4330,-82.6670,98.67,1111122 
COMPS,ioos:station:USF.COMPS:ARP:1,2014-02-01T07:30:00Z,28.4330,-82.6670,98.69,1111122 
COMPS,ioos:station:USF.COMPS:ARP:1,2014-02-01T07:36:00Z,28.4330,-82.6670,98.72,1111122 
COMPS,ioos:station:USF.COMPS:ARP:1,2014-02-01T07:42:00Z,28.4330,-82.6670,98.77,1111122 
COMPS,ioos:station:USF.COMPS:ARP:1,2014-02-01T07:48:00Z,28.4330,-82.6670,98.75,1111122 
COMPS,ioos:station:USF.COMPS:ARP:1,2014-02-01T07:54:00Z,28.4330,-82.6670,98.78,1111122 
COMPS,ioos:station:USF.COMPS:ARP:1,2014-02-01T08:00:00Z,28.4330,-82.6670,98.78,1111122 
COMPS,ioos:station:USF.COMPS:ARP:1,2014-02-01T08:06:00Z,28.4330,-82.6670,98.81,1111122 
COMPS,ioos:station:USF.COMPS:ARP:1,2014-02-01T08:12:00Z,28.4330,-82.6670,98.82,1111122 
COMPS,ioos:station:USF.COMPS:ARP:1,2014-02-01T08:18:00Z,28.4330,-82.6670,98.79,1111122 
COMPS,ioos:station:USF.COMPS:ARP:1,2014-02-01T08:24:00Z,28.4330,-82.6670,98.79,1111122 
COMPS,ioos:station:USF.COMPS:ARP:1,2014-02-01T08:30:00Z,28.4330,-82.6670,98.8,1111122 
COMPS,ioos:station:USF.COMPS:ARP:1,2014-02-01T08:36:00Z,28.4330,-82.6670,98.78,1111122 
COMPS,ioos:station:USF.COMPS:ARP:1,2014-02-01T08:42:00Z,28.4330,-82.6670,98.79,1111122 
COMPS,ioos:station:USF.COMPS:ARP:1,2014-02-01T08:48:00Z,28.4330,-82.6670,98.83,1111122 
COMPS,ioos:station:USF.COMPS:ARP:1,2014-02-01T08:54:00Z,28.4330,-82.6670,98.82,1111122 
COMPS,ioos:station:USF.COMPS:ARP:1,2014-02-01T09:00:00Z,28.4330,-82.6670,98.87,1111122 
COMPS,ioos:station:USF.COMPS:ARP:1,2014-02-01T09:06:00Z,28.4330,-82.6670,98.87,1111122 
COMPS,ioos:station:USF.COMPS:ARP:1,2014-02-01T09:12:00Z,28.4330,-82.6670,98.73,1111122 
COMPS,ioos:station:USF.COMPS:ARP:1,2014-02-01T09:18:00Z,28.4330,-82.6670,98.93,1111122 
COMPS,ioos:station:USF.COMPS:ARP:1,2014-02-01T09:24:00Z,28.4330,-82.6670,98.94,1111122 
COMPS,ioos:station:USF.COMPS:ARP:1,2014-02-01T09:30:00Z,28.4330,-82.6670,98.97,1111122 
COMPS,ioos:station:USF.COMPS:ARP:1,2014-02-01T09:36:00Z,28.4330,-82.6670,98.94,1111122 
COMPS,ioos:station:USF.COMPS:ARP:1,2014-02-01T09:42:00Z,28.4330,-82.6670,98.93,1111122 
COMPS,ioos:station:USF.COMPS:ARP:1,2014-02-01T09:48:00Z,28.4330,-82.6670,98.89,1111122 
COMPS,ioos:station:USF.COMPS:ARP:1,2014-02-01T09:54:00Z,28.4330,-82.6670,98.84,1111122 
COMPS,ioos:station:USF.COMPS:ARP:1,2014-02-01T10:00:00Z,28.4330,-82.6670,98.86,1111122 
COMPS,ioos:station:USF.COMPS:ARP:1,2014-02-01T10:06:00Z,28.4330,-82.6670,98.88,1111122 
COMPS,ioos:station:USF.COMPS:ARP:1,2014-02-01T10:12:00Z,28.4330,-82.6670,98.89,1111122 
COMPS,ioos:station:USF.COMPS:ARP:1,2014-02-01T10:18:00Z,28.4330,-82.6670,98.88,1111122 
COMPS,ioos:station:USF.COMPS:ARP:1,2014-02-01T10:24:00Z,28.4330,-82.6670,98.9,1111122 
COMPS,ioos:station:USF.COMPS:ARP:1,2014-02-01T10:30:00Z,28.4330,-82.6670,98.89,1111122 
COMPS,ioos:station:USF.COMPS:ARP:1,2014-02-01T10:36:00Z,28.4330,-82.6670,98.91,1111122 
COMPS,ioos:station:USF.COMPS:ARP:1,2014-02-01T10:42:00Z,28.4330,-82.6670,98.99,1111122 
COMPS,ioos:station:USF.COMPS:ARP:1,2014-02-01T10:48:00Z,28.4330,-82.6670,98.98,1111122 
COMPS,ioos:station:USF.COMPS:ARP:1,2014-02-01T10:54:00Z,28.4330,-82.6670,98.81,1111122 
COMPS,ioos:station:USF.COMPS:ARP:1,2014-02-01T11:00:00Z,28.4330,-82.6670,98.92,1111122 
COMPS,ioos:station:USF.COMPS:ARP:1,2014-02-01T11:06:00Z,28.4330,-82.6670,98.88,1111122 
COMPS,ioos:station:USF.COMPS:ARP:1,2014-02-01T11:12:00Z,28.4330,-82.6670,98.83,1111122 
COMPS,ioos:station:USF.COMPS:ARP:1,2014-02-01T11:18:00Z,28.4330,-82.6670,99.13,1111122 
COMPS,ioos:station:USF.COMPS:ARP:1,2014-02-01T11:24:00Z,28.4330,-82.6670,98.97,1111122 
COMPS,ioos:station:USF.COMPS:ARP:1,2014-02-01T11:30:00Z,28.4330,-82.6670,98.94,1111122 
COMPS,ioos:station:USF.COMPS:ARP:1,2014-02-01T11:36:00Z,28.4330,-82.6670,98.94,1111122 
COMPS,ioos:station:USF.COMPS:ARP:1,2014-02-01T11:42:00Z,28.4330,-82.6670,98.98,1111122 
COMPS,ioos:station:USF.COMPS:ARP:1,2014-02-01T11:48:00Z,28.4330,-82.6670,99.01,1111122 
COMPS,ioos:station:USF.COMPS:ARP:1,2014-02-01T11:54:00Z,28.4330,-82.6670,98.98,1111122 
COMPS,ioos:station:USF.COMPS:ARP:1,2014-02-01T12:00:00Z,28.4330,-82.6670,98.99,1111122 
COMPS,ioos:station:USF.COMPS:ARP:1,2014-02-01T12:06:00Z,28.4330,-82.6670,99.0,1111122 
COMPS,ioos:station:USF.COMPS:ARP:1,2014-02-01T12:12:00Z,28.4330,-82.6670,99.09,1111122 
COMPS,ioos:station:USF.COMPS:ARP:1,2014-02-01T12:18:00Z,28.4330,-82.6670,99.1,1111122 
COMPS,ioos:station:USF.COMPS:ARP:1,2014-02-01T12:24:00Z,28.4330,-82.6670,99.14,1111122 
COMPS,ioos:station:USF.COMPS:ARP:1,2014-02-01T12:30:00Z,28.4330,-82.6670,99.07,1111122 
COMPS,ioos:station:USF.COMPS:ARP:1,2014-02-01T12:36:00Z,28.4330,-82.6670,99.08,1111122 
COMPS,ioos:station:USF.COMPS:ARP:1,2014-02-01T12:42:00Z,28.4330,-82.6670,99.08,1111122 
COMPS,ioos:station:USF.COMPS:ARP:1,2014-02-01T12:48:00Z,28.4330,-82.6670,99.05,1111122 
COMPS,ioos:station:USF.COMPS:ARP:1,2014-02-01T12:54:00Z,28.4330,-82.6670,99.01,1111122 
COMPS,ioos:station:USF.COMPS:ARP:1,2014-02-01T13:00:00Z,28.4330,-82.6670,98.99,1111122 
COMPS,ioos:station:USF.COMPS:ARP:1,2014-02-01T13:06:00Z,28.4330,-82.6670,98.93,1111122 
COMPS,ioos:station:USF.COMPS:ARP:1,2014-02-01T13:12:00Z,28.4330,-82.6670,99.0,1111122 
COMPS,ioos:station:USF.COMPS:ARP:1,2014-02-01T13:18:00Z,28.4330,-82.6670,99.01,1111122 
COMPS,ioos:station:USF.COMPS:ARP:1,2014-02-01T13:24:00Z,28.4330,-82.6670,98.27,1111122 
COMPS,ioos:station:USF.COMPS:ARP:1,2014-02-01T13:30:00Z,28.4330,-82.6670,98.29,1111122 
COMPS,ioos:station:USF.COMPS:ARP:1,2014-02-01T13:36:00Z,28.4330,-82.6670,98.82,1111122 
COMPS,ioos:station:USF.COMPS:ARP:1,2014-02-01T13:42:00Z,28.4330,-82.6670,99.14,1111122 
COMPS,ioos:station:USF.COMPS:ARP:1,2014-02-01T13:48:00Z,28.4330,-82.6670,99.19,1111122 
COMPS,ioos:station:USF.COMPS:ARP:1,2014-02-01T13:54:00Z,28.4330,-82.6670,99.28,1111122 
COMPS,ioos:station:USF.COMPS:ARP:1,2014-02-01T14:00:00Z,28.4330,-82.6670,99.2,1111122 
COMPS,ioos:station:USF.COMPS:ARP:1,2014-02-01T14:06:00Z,28.4330,-82.6670,99.18,1111122 
COMPS,ioos:station:USF.COMPS:ARP:1,2014-02-01T14:12:00Z,28.4330,-82.6670,99.17,1111122 
COMPS,ioos:station:USF.COMPS:ARP:1,2014-02-01T14:18:00Z,28.4330,-82.6670,99.19,1111122 
COMPS,ioos:station:USF.COMPS:ARP:1,2014-02-01T14:24:00Z,28.4330,-82.6670,99.21,1111122 
COMPS,ioos:station:USF.COMPS:ARP:1,2014-02-01T14:30:00Z,28.4330,-82.6670,98.87,1111122 
COMPS,ioos:station:USF.COMPS:ARP:1,2014-02-01T14:36:00Z,28.4330,-82.6670,98.7,1111122 
COMPS,ioos:station:USF.COMPS:ARP:1,2014-02-01T14:42:00Z,28.4330,-82.6670,99.12,1111122 
COMPS,ioos:station:USF.COMPS:ARP:1,2014-02-01T14:48:00Z,28.4330,-82.6670,99.05,1111122 
COMPS,ioos:station:USF.COMPS:ARP:1,2014-02-01T14:54:00Z,28.4330,-82.6670,98.72,1111122 
COMPS,ioos:station:USF.COMPS:ARP:1,2014-02-01T15:00:00Z,28.4330,-82.6670,98.61,1111122 
COMPS,ioos:station:USF.COMPS:ARP:1,2014-02-01T15:06:00Z,28.4330,-82.6670,98.83,1111122 
COMPS,ioos:station:USF.COMPS:ARP:1,2014-02-01T15:12:00Z,28.4330,-82.6670,99.09,1111122 
COMPS,ioos:station:USF.COMPS:ARP:1,2014-02-01T15:18:00Z,28.4330,-82.6670,99.21,1111122 
COMPS,ioos:station:USF.COMPS:ARP:1,2014-02-01T15:24:00Z,28.4330,-82.6670,99.18,1111122 
COMPS,ioos:station:USF.COMPS:ARP:1,2014-02-01T15:30:00Z,28.4330,-82.6670,99.13,1111122 
COMPS,ioos:station:USF.COMPS:ARP:1,2014-02-01T15:36:00Z,28.4330,-82.6670,99.18,1111122 
COMPS,ioos:station:USF.COMPS:ARP:1,2014-02-01T15:42:00Z,28.4330,-82.6670,99.17,1111122 
COMPS,ioos:station:USF.COMPS:ARP:1,2014-02-01T15:48:00Z,28.4330,-82.6670,98.94,1111122 
COMPS,ioos:station:USF.COMPS:ARP:1,2014-02-01T15:54:00Z,28.4330,-82.6670,98.76,1111122 
COMPS,ioos:station:USF.COMPS:ARP:1,2014-02-01T16:00:00Z,28.4330,-82.6670,98.65,1111122 
COMPS,ioos:station:USF.COMPS:ARP:1,2014-02-01T16:06:00Z,28.4330,-82.6670,98.68,1111122 
COMPS,ioos:station:USF.COMPS:ARP:1,2014-02-01T16:12:00Z,28.4330,-82.6670,98.74,1111122 
COMPS,ioos:station:USF.COMPS:ARP:1,2014-02-01T16:18:00Z,28.4330,-82.6670,98.72,1111122 
COMPS,ioos:station:USF.COMPS:ARP:1,2014-02-01T16:24:00Z,28.4330,-82.6670,98.5,1111122 
COMPS,ioos:station:USF.COMPS:ARP:1,2014-02-01T16:30:00Z,28.4330,-82.6670,98.12,1111122 
COMPS,ioos:station:USF.COMPS:ARP:1,2014-02-01T16:36:00Z,28.4330,-82.6670,98.08,1111122 
COMPS,ioos:station:USF.COMPS:ARP:1,2014-02-01T16:42:00Z,28.4330,-82.6670,98.03,1111122 
COMPS,ioos:station:USF.COMPS:ARP:1,2014-02-01T16:48:00Z,28.4330,-82.6670,97.86,1111122 
COMPS,ioos:station:USF.COMPS:ARP:1,2014-02-01T16:54:00Z,28.4330,-82.6670,98.12,1111122 
COMPS,ioos:station:USF.COMPS:ARP:1,2014-02-01T17:00:00Z,28.4330,-82.6670,98.3,1111122 
COMPS,ioos:station:USF.COMPS:ARP:1,2014-02-01T17:06:00Z,28.4330,-82.6670,98.29,1111122 
COMPS,ioos:station:USF.COMPS:ARP:1,2014-02-01T17:12:00Z,28.4330,-82.6670,98.34,1111122 
COMPS,ioos:station:USF.COMPS:ARP:1,2014-02-01T17:18:00Z,28.4330,-82.6670,98.2,1111122 
COMPS,ioos:station:USF.COMPS:ARP:1,2014-02-01T17:24:00Z,28.4330,-82.6670,98.01,1111122 
COMPS,ioos:station:USF.COMPS:ARP:1,2014-02-01T17:30:00Z,28.4330,-82.6670,97.97,1111122 
COMPS,ioos:station:USF.COMPS:ARP:1,2014-02-01T17:36:00Z,28.4330,-82.6670,97.69,1111122 
COMPS,ioos:station:USF.COMPS:ARP:1,2014-02-01T17:42:00Z,28.4330,-82.6670,97.7,1111122 
COMPS,ioos:station:USF.COMPS:ARP:1,2014-02-01T17:48:00Z,28.4330,-82.6670,97.23,1111122 
COMPS,ioos:station:USF.COMPS:ARP:1,2014-02-01T17:54:00Z,28.4330,-82.6670,96.99,1111122 
COMPS,ioos:station:USF.COMPS:ARP:1,2014-02-01T18:00:00Z,28.4330,-82.6670,96.5,1111122 
COMPS,ioos:station:USF.COMPS:ARP:1,2014-02-01T18:06:00Z,28.4330,-82.6670,97.07,1111122 
COMPS,ioos:station:USF.COMPS:ARP:1,2014-02-01T18:12:00Z,28.4330,-82.6670,96.7,1111122 
COMPS,ioos:station:USF.COMPS:ARP:1,2014-02-01T18:18:00Z,28.4330,-82.6670,95.83,1111122 
COMPS,ioos:station:USF.COMPS:ARP:1,2014-02-01T18:24:00Z,28.4330,-82.6670,95.7,1111122 
COMPS,ioos:station:USF.COMPS:ARP:1,2014-02-01T18:30:00Z,28.4330,-82.6670,94.31,1111122 
COMPS,ioos:station:USF.COMPS:ARP:1,2014-02-01T18:36:00Z,28.4330,-82.6670,92.76,1111122 
COMPS,ioos:station:USF.COMPS:ARP:1,2014-02-01T18:42:00Z,28.4330,-82.6670,92.56,1111122 
COMPS,ioos:station:USF.COMPS:ARP:1,2014-02-01T18:48:00Z,28.4330,-82.6670,92.13,1111122 
COMPS,ioos:station:USF.COMPS:ARP:1,2014-02-01T18:54:00Z,28.4330,-82.6670,90.33,1111122 
COMPS,ioos:station:USF.COMPS:ARP:1,2014-02-01T19:00:00Z,28.4330,-82.6670,88.53,1111122 
COMPS,ioos:station:USF.COMPS:ARP:1,2014-02-01T19:06:00Z,28.4330,-82.6670,89.09,1111122 
COMPS,ioos:station:USF.COMPS:ARP:1,2014-02-01T19:12:00Z,28.4330,-82.6670,91.63,1111122 
COMPS,ioos:station:USF.COMPS:ARP:1,2014-02-01T19:18:00Z,28.4330,-82.6670,92.72,1111122 
COMPS,ioos:station:USF.COMPS:ARP:1,2014-02-01T19:24:00Z,28.4330,-82.6670,93.03,1111122 
COMPS,ioos:station:USF.COMPS:ARP:1,2014-02-01T19:30:00Z,28.4330,-82.6670,92.92,1111122 
COMPS,ioos:station:USF.COMPS:ARP:1,2014-02-01T19:36:00Z,28.4330,-82.6670,93.05,1111122 
COMPS,ioos:station:USF.COMPS:ARP:1,2014-02-01T19:42:00Z,28.4330,-82.6670,93.57,1111122 
COMPS,ioos:station:USF.COMPS:ARP:1,2014-02-01T19:48:00Z,28.4330,-82.6670,93.43,1111122 
COMPS,ioos:station:USF.COMPS:ARP:1,2014-02-01T19:54:00Z,28.4330,-82.6670,93.44,1111122 
COMPS,ioos:station:USF.COMPS:ARP:1,2014-02-01T20:00:00Z,28.4330,-82.6670,93.39,1111122 
COMPS,ioos:station:USF.COMPS:ARP:1,2014-02-01T20:06:00Z,28.4330,-82.6670,93.35,1111122 
COMPS,ioos:station:USF.COMPS:ARP:1,2014-02-01T20:12:00Z,28.4330,-82.6670,93.95,1111122 
COMPS,ioos:station:USF.COMPS:ARP:1,2014-02-01T20:18:00Z,28.4330,-82.6670,94.09,1111122 
COMPS,ioos:station:USF.COMPS:ARP:1,2014-02-01T20:24:00Z,28.4330,-82.6670,94.45,1111122 
COMPS,ioos:station:USF.COMPS:ARP:1,2014-02-01T20:30:00Z,28.4330,-82.6670,94.63,1111122 
COMPS,ioos:station:USF.COMPS:ARP:1,2014-02-01T20:36:00Z,28.4330,-82.6670,94.76,1111122 
COMPS,ioos:station:USF.COMPS:ARP:1,2014-02-01T20:42:00Z,28.4330,-82.6670,94.85,1111122 
COMPS,ioos:station:USF.COMPS:ARP:1,2014-02-01T20:48:00Z,28.4330,-82.6670,95.09,1111122 
COMPS,ioos:station:USF.COMPS:ARP:1,2014-02-01T20:54:00Z,28.4330,-82.6670,95.34,1111122 
COMPS,ioos:station:USF.COMPS:ARP:1,2014-02-01T21:00:00Z,28.4330,-82.6670,95.6,1111122 
COMPS,ioos:station:USF.COMPS:ARP:1,2014-02-01T21:06:00Z,28.4330,-82.6670,95.7,1111122 
COMPS,ioos:station:USF.COMPS:ARP:1,2014-02-01T21:12:00Z,28.4330,-82.6670,95.82,1111122 
COMPS,ioos:station:USF.COMPS:ARP:1,2014-02-01T21:18:00Z,28.4330,-82.6670,95.88,1111122 
COMPS,ioos:station:USF.COMPS:ARP:1,2014-02-01T21:24:00Z,28.4330,-82.6670,95.99,1111122 
COMPS,ioos:station:USF.COMPS:ARP:1,2014-02-01T21:30:00Z,28.4330,-82.6670,96.11,1111122 
COMPS,ioos:station:USF.COMPS:ARP:1,2014-02-01T21:36:00Z,28.4330,-82.6670,96.32,1111122 
COMPS,ioos:station:USF.COMPS:ARP:1,2014-02-01T21:42:00Z,28.4330,-82.6670,96.56,1111122 
COMPS,ioos:station:USF.COMPS:ARP:1,2014-02-01T21:48:00Z,28.4330,-82.6670,96.71,1111122 
COMPS,ioos:station:USF.COMPS:ARP:1,2014-02-01T21:54:00Z,28.4330,-82.6670,96.77,1111122 
COMPS,ioos:station:USF.COMPS:ARP:1,2014-02-01T22:00:00Z,28.4330,-82.6670,96.91,1111122 
COMPS,ioos:station:USF.COMPS:ARP:1,2014-02-01T22:06:00Z,28.4330,-82.6670,97.0,1111122 
COMPS,ioos:station:USF.COMPS:ARP:1,2014-02-01T22:12:00Z,28.4330,-82.6670,97.16,1111122 
COMPS,ioos:station:USF.COMPS:ARP:1,2014-02-01T22:18:00Z,28.4330,-82.6670,97.21,1111122 
COMPS,ioos:station:USF.COMPS:ARP:1,2014-02-01T22:24:00Z,28.4330,-82.6670,97.31,1111122 
COMPS,ioos:station:USF.COMPS:ARP:1,2014-02-01T22:30:00Z,28.4330,-82.6670,97.33,1111122 
COMPS,ioos:station:USF.COMPS:ARP:1,2014-02-01T22:36:00Z,28.4330,-82.6670,97.43,1111122 
COMPS,ioos:station:USF.COMPS:ARP:1,2014-02-01T22:42:00Z,28.4330,-82.6670,97.44,1111122 
COMPS,ioos:station:USF.COMPS:ARP:1,2014-02-01T22:48:00Z,28.4330,-82.6670,97.58,1111122 
COMPS,ioos:station:USF.COMPS:ARP:1,2014-02-01T22:54:00Z,28.4330,-82.6670,97.6,1111122 
COMPS,ioos:station:USF.COMPS:ARP:1,2014-02-01T23:00:00Z,28.4330,-82.6670,97.7,1111122 
COMPS,ioos:station:USF.COMPS:ARP:1,2014-02-01T23:06:00Z,28.4330,-82.6670,97.73,1111122 
COMPS,ioos:station:USF.COMPS:ARP:1,2014-02-01T23:12:00Z,28.4330,-82.6670,97.72,1111122 
COMPS,ioos:station:USF.COMPS:ARP:1,2014-02-01T23:18:00Z,28.4330,-82.6670,97.76,1111122 
COMPS,ioos:station:USF.COMPS:ARP:1,2014-02-01T23:24:00Z,28.4330,-82.6670,97.85,1111122 
COMPS,ioos:station:USF.COMPS:ARP:1,2014-02-01T23:30:00Z,28.4330,-82.6670,97.83,1111122 
COMPS,ioos:station:USF.COMPS:ARP:1,2014-02-01T23:36:00Z,28.4330,-82.6670,97.84,1111122 
COMPS,ioos:station:USF.COMPS:ARP:1,2014-02-01T23:42:00Z,28.4330,-82.6670,97.87,1111122 
COMPS,ioos:station:USF.COMPS:ARP:1,2014-02-01T23:48:00Z,28.4330,-82.6670,97.92,1111122 
COMPS,ioos:station:USF.COMPS:ARP:1,2014-02-01T23:54:00Z,28.4330,-82.6670,97.93,1111122 
COMPS,ioos:station:USF.COMPS:ARP:1,2014-02-02T00:00:00Z,28.4330,-82.6670,97.91,1111122 
COMPS,ioos:station:USF.COMPS:ARP:1,2014-02-02T00:06:00Z,28.4330,-82.6670,97.99,1111122 
COMPS,ioos:station:USF.COMPS:ARP:1,2014-02-02T00:12:00Z,28.4330,-82.6670,97.99,1111122 
COMPS,ioos:station:USF.COMPS:ARP:1,2014-02-02T00:18:00Z,28.4330,-82.6670,97.98,1111122 
COMPS,ioos:station:USF.COMPS:ARP:1,2014-02-02T00:24:00Z,28.4330,-82.6670,98.04,1111122 
COMPS,ioos:station:USF.COMPS:ARP:1,2014-02-02T00:30:00Z,28.4330,-82.6670,98.04,1111122 
COMPS,ioos:station:USF.COMPS:ARP:1,2014-02-02T00:36:00Z,28.4330,-82.6670,98.1,1111122 
COMPS,ioos:station:USF.COMPS:ARP:1,2014-02-02T00:42:00Z,28.4330,-82.6670,98.12,1111122 
COMPS,ioos:station:USF.COMPS:ARP:1,2014-02-02T00:48:00Z,28.4330,-82.6670,98.15,1111122 
COMPS,ioos:station:USF.COMPS:ARP:1,2014-02-02T00:54:00Z,28.4330,-82.6670,98.12,1111122 
COMPS,ioos:station:USF.COMPS:ARP:1,2014-02-02T01:00:00Z,28.4330,-82.6670,98.15,1111122 
COMPS,ioos:station:USF.COMPS:ARP:1,2014-02-02T01:06:00Z,28.4330,-82.6670,98.2,1111122 
COMPS,ioos:station:USF.COMPS:ARP:1,2014-02-02T01:12:00Z,28.4330,-82.6670,98.19,1111122 
COMPS,ioos:station:USF.COMPS:ARP:1,2014-02-02T01:18:00Z,28.4330,-82.6670,98.23,1111122 
COMPS,ioos:station:USF.COMPS:ARP:1,2014-02-02T01:24:00Z,28.4330,-82.6670,98.29,1111122 
COMPS,ioos:station:USF.COMPS:ARP:1,2014-02-02T01:30:00Z,28.4330,-82.6670,98.26,1111122 
COMPS,ioos:station:USF.COMPS:ARP:1,2014-02-02T01:36:00Z,28.4330,-82.6670,98.3,1111122 
COMPS,ioos:station:USF.COMPS:ARP:1,2014-02-02T01:42:00Z,28.4330,-82.6670,98.35,1111122 
COMPS,ioos:station:USF.COMPS:ARP:1,2014-02-02T01:48:00Z,28.4330,-82.6670,98.39,1111122 
COMPS,ioos:station:USF.COMPS:ARP:1,2014-02-02T01:54:00Z,28.4330,-82.6670,98.4,1111122 
COMPS,ioos:station:USF.COMPS:ARP:1,2014-02-02T02:00:00Z,28.4330,-82.6670,98.44,1111122 
COMPS,ioos:station:USF.COMPS:ARP:1,2014-02-02T02:06:00Z,28.4330,-82.6670,98.53,1111122 
COMPS,ioos:station:USF.COMPS:ARP:1,2014-02-02T02:12:00Z,28.4330,-82.6670,98.54,1111122 
COMPS,ioos:station:USF.COMPS:ARP:1,2014-02-02T02:18:00Z,28.4330,-82.6670,98.59,1111122 
COMPS,ioos:station:USF.COMPS:ARP:1,2014-02-02T02:24:00Z,28.4330,-82.6670,98.63,1111122 
COMPS,ioos:station:USF.COMPS:ARP:1,2014-02-02T02:30:00Z,28.4330,-82.6670,98.68,1111122 
COMPS,ioos:station:USF.COMPS:ARP:1,2014-02-02T02:36:00Z,28.4330,-82.6670,98.7,1111122 
COMPS,ioos:station:USF.COMPS:ARP:1,2014-02-02T02:42:00Z,28.4330,-82.6670,98.72,1111122 
COMPS,ioos:station:USF.COMPS:ARP:1,2014-02-02T02:48:00Z,28.4330,-82.6670,98.73,1111122 
COMPS,ioos:station:USF.COMPS:ARP:1,2014-02-02T02:54:00Z,28.4330,-82.6670,98.71,1111122 
COMPS,ioos:station:USF.COMPS:ARP:1,2014-02-02T03:00:00Z,28.4330,-82.6670,98.73,1111122 
COMPS,ioos:station:USF.COMPS:ARP:1,2014-02-02T03:06:00Z,28.4330,-82.6670,98.75,1111122 